Previsão horária em Cenovo

Hoje, 30 Julho, Sexta-feira

Tempo Temperatura Precipitação Vento Pressão Humidade
00:00 +19°C° 0 mm 2 m/s 744 mmHg 86%
01:00 +18°C° 0 mm 2 m/s 744 mmHg 87%
02:00 +18°C° 0 mm 2 m/s 744 mmHg 88%
03:00 +18°C° 0 mm 2 m/s 744 mmHg 89%
04:00 +19°C° 0 mm 1 m/s 744 mmHg 87%
05:00 +20°C° 0 mm 1 m/s 744 mmHg 85%
06:00 +20°C° 0 mm 1 m/s 744 mmHg 82%
07:00 +23°C° 0 mm 1 m/s 744 mmHg 73%
08:00 +25°C° 0 mm 1 m/s 744 mmHg 64%
09:00 +27°C° 0 mm 1 m/s 743 mmHg 55%
10:00 +28°C° 0 mm 1 m/s 743 mmHg 53%
11:00 +28°C° 0 mm 2 m/s 743 mmHg 51%
12:00 +29°C° 0 mm 2 m/s 743 mmHg 49%
13:00 +26°C° 1.6 mm 2 m/s 743 mmHg 64%
14:00 +24°C° 1.6 mm 2 m/s 743 mmHg 79%
15:00 +20°C° 1.6 mm 2 m/s 743 mmHg 94%
16:00 +22°C° 0.7 mm 1 m/s 742 mmHg 90%
17:00 +23°C° 0.7 mm 1 m/s 742 mmHg 85%
18:00 +24°C° 0.7 mm 1 m/s 742 mmHg 81%
19:00 +23°C° 0.3 mm 1 m/s 742 mmHg 86%
20:00 +21°C° 0.3 mm 1 m/s 742 mmHg 92%
21:00 +20°C° 0.3 mm 1 m/s 742 mmHg 98%
22:00 +20°C° 0 mm 1 m/s 742 mmHg 98%
23:00 +19°C° 0 mm 2 m/s 742 mmHg 98%

Amanhã, 31 Julho, Sábado

Tempo Temperatura Precipitação Vento Pressão Humidade
00:00 +18°C° 0 mm 2 m/s 742 mmHg 98%
01:00 +18°C° 0 mm 2 m/s 742 mmHg 98%
02:00 +18°C° 0 mm 2 m/s 742 mmHg 98%
03:00 +18°C° 0 mm 2 m/s 742 mmHg 97%
04:00 +18°C° 0 mm 2 m/s 742 mmHg 96%
05:00 +18°C° 0 mm 2 m/s 742 mmHg 95%
06:00 +18°C° 0 mm 3 m/s 742 mmHg 94%
07:00 +19°C° 0 mm 3 m/s 743 mmHg 82%
08:00 +21°C° 0 mm 3 m/s 743 mmHg 70%
09:00 +23°C° 0 mm 4 m/s 743 mmHg 59%
10:00 +25°C° 0 mm 4 m/s 744 mmHg 52%
11:00 +26°C° 0 mm 5 m/s 744 mmHg 45%
12:00 +28°C° 0 mm 5 m/s 744 mmHg 38%
13:00 +28°C° 0 mm 5 m/s 744 mmHg 36%
14:00 +28°C° 0 mm 5 m/s 744 mmHg 35%
15:00 +28°C° 0 mm 6 m/s 744 mmHg 33%
16:00 +28°C° 0 mm 5 m/s 744 mmHg 36%
17:00 +28°C° 0 mm 5 m/s 744 mmHg 39%
18:00 +27°C° 0 mm 4 m/s 744 mmHg 41%
19:00 +25°C° 0 mm 3 m/s 744 mmHg 49%
20:00 +22°C° 0 mm 3 m/s 745 mmHg 56%
21:00 +20°C° 0 mm 2 m/s 745 mmHg 63%
22:00 +19°C° 0 mm 2 m/s 745 mmHg 66%
23:00 +19°C° 0 mm 2 m/s 746 mmHg 70%

Depois de amanhã, 1 Agosto, Domingo

Tempo Temperatura Precipitação Vento Pressão Humidade
00:00 +18°C° 0 mm 2 m/s 746 mmHg 73%
01:00 +17°C° 0 mm 2 m/s 746 mmHg 74%
02:00 +17°C° 0 mm 2 m/s 746 mmHg 76%
03:00 +17°C° 0 mm 2 m/s 747 mmHg 77%
04:00 +17°C° 0 mm 2 m/s 747 mmHg 77%
05:00 +17°C° 0 mm 2 m/s 747 mmHg 77%
06:00 +18°C° 0 mm 2 m/s 747 mmHg 77%
07:00 +20°C° 0 mm 2 m/s 748 mmHg 69%
08:00 +23°C° 0 mm 2 m/s 748 mmHg 62%
09:00 +25°C° 0 mm 3 m/s 748 mmHg 54%
10:00 +27°C° 0 mm 3 m/s 748 mmHg 50%
11:00 +28°C° 0 mm 4 m/s 747 mmHg 46%
12:00 +30°C° 0 mm 4 m/s 747 mmHg 42%
13:00 +30°C° 0 mm 4 m/s 747 mmHg 41%
14:00 +32°C° 0 mm 4 m/s 747 mmHg 40%
15:00 +32°C° 0 mm 4 m/s 747 mmHg 39%
16:00 +31°C° 0 mm 3 m/s 746 mmHg 41%
17:00 +30°C° 0 mm 3 m/s 746 mmHg 43%
18:00 +30°C° 0 mm 2 m/s 746 mmHg 46%
19:00 +28°C° 0 mm 2 m/s 746 mmHg 50%
20:00 +27°C° 0 mm 2 m/s 745 mmHg 54%
21:00 +25°C° 0 mm 2 m/s 745 mmHg 58%
22:00 +24°C° 0 mm 2 m/s 745 mmHg 61%
23:00 +23°C° 0 mm 2 m/s 745 mmHg 64%

2 Agosto, Segunda-feira

Tempo Temperatura Precipitação Vento Pressão Humidade
00:00 +23°C° 0 mm 2 m/s 745 mmHg 67%
01:00 +21°C° 0.2 mm 2 m/s 745 mmHg 73%
02:00 +20°C° 0.2 mm 2 m/s 746 mmHg 79%
03:00 +20°C° 0.2 mm 2 m/s 746 mmHg 86%
04:00 +20°C° 0.2 mm 2 m/s 746 mmHg 88%
05:00 +21°C° 0.2 mm 1 m/s 746 mmHg 90%
06:00 +20°C° 0.2 mm 1 m/s 746 mmHg 92%
07:00 +22°C° 0.1 mm 1 m/s 746 mmHg 85%
08:00 +23°C° 0.1 mm 1 m/s 746 mmHg 79%
09:00 +25°C° 0.1 mm 1 m/s 745 mmHg 72%
10:00 +27°C° 0 mm 2 m/s 745 mmHg 63%
11:00 +29°C° 0 mm 3 m/s 745 mmHg 55%
12:00 +31°C° 0 mm 3 m/s 745 mmHg 46%
13:00 +33°C° 0 mm 3 m/s 745 mmHg 45%
14:00 +33°C° 0 mm 4 m/s 744 mmHg 43%
15:00 +34°C° 0 mm 4 m/s 744 mmHg 42%
16:00 +32°C° 0.1 mm 4 m/s 744 mmHg 50%
17:00 +29°C° 0.1 mm 3 m/s 744 mmHg 57%
18:00 +27°C° 0.1 mm 3 m/s 743 mmHg 65%
19:00 +26°C° 0.1 mm 3 m/s 743 mmHg 71%
20:00 +24°C° 0.1 mm 3 m/s 743 mmHg 76%
21:00 +23°C° 0.1 mm 2 m/s 743 mmHg 81%
22:00 +21°C° 0.1 mm 2 m/s 743 mmHg 84%
23:00 +21°C° 0.1 mm 2 m/s 743 mmHg 87%

3 Agosto, Terça-feira

Tempo Temperatura Precipitação Vento Pressão Humidade
00:00 +20°C° 0.1 mm 2 m/s 743 mmHg 90%
01:00 +20°C° 0.1 mm 2 m/s 743 mmHg 90%
02:00 +20°C° 0.1 mm 3 m/s 743 mmHg 91%
03:00 +19°C° 0.1 mm 3 m/s 743 mmHg 92%
04:00 +20°C° 0.1 mm 2 m/s 743 mmHg 91%
05:00 +20°C° 0.1 mm 2 m/s 743 mmHg 91%
06:00 +20°C° 0.1 mm 2 m/s 743 mmHg 91%
07:00 +20°C° 0.5 mm 2 m/s 743 mmHg 92%
08:00 +21°C° 0.5 mm 1 m/s 743 mmHg 93%
09:00 +21°C° 0.5 mm 1 m/s 744 mmHg 95%
10:00 +21°C° 1.1 mm 1 m/s 744 mmHg 95%
11:00 +21°C° 1.1 mm 1 m/s 744 mmHg 95%
12:00 +21°C° 1.1 mm 1 m/s 745 mmHg 95%
13:00 +20°C° 0.3 mm 2 m/s 745 mmHg 90%
14:00 +21°C° 0.3 mm 2 m/s 745 mmHg 85%
15:00 +21°C° 0.3 mm 3 m/s 746 mmHg 80%
16:00 +21°C° 0 mm 3 m/s 746 mmHg 77%
17:00 +21°C° 0 mm 2 m/s 746 mmHg 74%
18:00 +21°C° 0 mm 2 m/s 746 mmHg 71%
19:00 +20°C° 0 mm 2 m/s 747 mmHg 75%
20:00 +19°C° 0 mm 2 m/s 747 mmHg 79%
21:00 +18°C° 0 mm 2 m/s 748 mmHg 84%
22:00 +17°C° 0 mm 2 m/s 748 mmHg 85%
23:00 +17°C° 0 mm 2 m/s 748 mmHg 86%

4 Agosto, Quarta-feira

Tempo Temperatura Precipitação Vento Pressão Humidade
00:00 +16°C° 0 mm 2 m/s 748 mmHg 87%
01:00 +16°C° 0 mm 2 m/s 749 mmHg 88%
02:00 +16°C° 0 mm 2 m/s 749 mmHg 89%
03:00 +15°C° 0 mm 2 m/s 749 mmHg 90%
04:00 +16°C° 0 mm 2 m/s 750 mmHg 88%
05:00 +16°C° 0 mm 1 m/s 750 mmHg 87%
06:00 +16°C° 0 mm 1 m/s 750 mmHg 86%
07:00 +19°C° 0 mm 1 m/s 750 mmHg 76%
08:00 +20°C° 0 mm 2 m/s 751 mmHg 66%
09:00 +23°C° 0 mm 2 m/s 751 mmHg 56%
10:00 +25°C° 0 mm 2 m/s 751 mmHg 50%
11:00 +26°C° 0 mm 2 m/s 751 mmHg 45%
12:00 +27°C° 0 mm 2 m/s 751 mmHg 40%
13:00 +26°C° 0 mm 2 m/s 751 mmHg 44%
14:00 +25°C° 0 mm 2 m/s 751 mmHg 48%
15:00 +24°C° 0 mm 2 m/s 752 mmHg 52%
16:00 +24°C° 0 mm 2 m/s 752 mmHg 54%
17:00 +23°C° 0 mm 2 m/s 752 mmHg 55%
18:00 +23°C° 0 mm 2 m/s 752 mmHg 57%
19:00 +21°C° 0 mm 2 m/s 752 mmHg 59%
20:00 +20°C° 0 mm 2 m/s 753 mmHg 62%
21:00 +20°C° 0 mm 1 m/s 753 mmHg 64%
22:00 +19°C° 0 mm 1 m/s 753 mmHg 67%
23:00 +17°C° 0 mm 2 m/s 753 mmHg 71%
Mostrar mais

Necessitamos do seu Consentimento

A Meteoprog e os seus Fornecedores de Serviços podem armazenar e aceder a dados pessoais como cookies, identificadores do dispositivo ou outras tecnologias semelhantes existentes no seu dispositivo e processar estes dados para personalizar conteúdos e anúncios, assim como funcionalidades nas redes sociais e análise de tráfego.

  • Armazenar e/ou aceder a informações no seu dispositivo

    Os cookies, identificadores do dispositivo ou outras informações podem ser armazenados ou acedidos no seu dispositivo, para os fins acima indicados.

  • Anúncios e conteúdos personalizados, medição de anúncios e conteúdos, dados sobre o público-alvo e desenvolvimento de produtos

    Os anúncios e os conteúdos podem ser personalizados com base num perfil. Podem ser adicionados dados adicionais para uma maior personalização dos anúncios e dos conteúdos. A eficácia dos anúncios e dos conteúdos pode ser medida. Podem ser obtidas informações sobre o público que visualizou os anúncios e os conteúdos. Estes dados podem ser usados para desenvolver ou melhorar sistemas, softwares ou a experiência do utilizador.

Ao clicar em "Eu concordo”, permitirá o uso de cookies, identificadores do dispositivo e web beacons mencionados ou outras tecnologias semelhantes. As configurações do navegador do seu dispositivo podem ser alteradas.

Para certos fins, podem ser invocados interesses legítimos ao invés de consentimento. Pode ler mais informação sobre este assunto na nossa Política de Privacidade e Cookies.